Total_Precipitation_Accumulation
0.06 0.07 0.06 0.06 0.04 0.02 0.00 0.00 0.00 0.00 0.00 0.00 0.00 0.00 0.00 0.00 0.00 0.00 0.00 0.00 0.01 0.02 0.04 0.12 0.18 0.20 0.24 0.23 0.20 0.17 0.15 0.14 0.14 0.14 0.14 0.14 0.15 0.15 0.16 0.17 0.20 0.25 0.27 0.26 0.25 0.23 0.23 0.26 0.31
0.08 0.09 0.08 0.07 0.03 0.01 0.00 0.00 0.00 0.00 0.00 0.00 0.00 0.00 0.00 0.00 0.00 0.00 0.00 0.00 0.00 0.01 0.03 0.07 0.16 0.19 0.23 0.22 0.19 0.17 0.15 0.14 0.13 0.12 0.12 0.13 0.14 0.13 0.14 0.16 0.21 0.25 0.31 0.36 0.32 0.26 0.26 0.31 0.33
0.12 0.12 0.09 0.07 0.03 0.00 0.00 0.00 0.00 0.00 0.00 0.00 0.00 0.00 0.00 0.00 0.00 0.00 0.00 0.00 0.00 0.01 0.02 0.07 0.16 0.20 0.23 0.22 0.22 0.20 0.18 0.15 0.14 0.12 0.12 0.13 0.12 0.12 0.11 0.12 0.16 0.22 0.27 0.31 0.32 0.30 0.31 0.30 0.27
0.16 0.18 0.13 0.07 0.01 0.00 0.00 0.00 0.00 0.00 0.00 0.00 0.00 0.00 0.00 0.00 0.00 0.00 0.00 0.00 0.00 0.01 0.02 0.08 0.16 0.22 0.23 0.24 0.25 0.24 0.22 0.19 0.17 0.15 0.15 0.15 0.14 0.12 0.10 0.10 0.10 0.12 0.17 0.23 0.25 0.26 0.29 0.32 0.30
0.19 0.22 0.16 0.06 0.01 0.00 0.00 0.00 0.00 0.00 0.00 0.00 0.00 0.00 0.00 0.00 0.00 0.00 0.00 0.00 0.00 0.01 0.03 0.08 0.17 0.24 0.25 0.25 0.27 0.27 0.26 0.26 0.23 0.21 0.20 0.18 0.16 0.14 0.11 0.12 0.11 0.08 0.09 0.14 0.19 0.24 0.27 0.32 0.32
0.22 0.25 0.16 0.05 0.01 0.00 0.00 0.01 0.01 0.01 0.00 0.00 0.00 0.00 0.00 0.00 0.00 0.00 0.01 0.01 0.01 0.02 0.04 0.11 0.22 0.26 0.26 0.26 0.29 0.30 0.30 0.32 0.31 0.28 0.26 0.22 0.18 0.17 0.16 0.16 0.14 0.11 0.09 0.09 0.11 0.16 0.22 0.26 0.27
0.21 0.21 0.12 0.05 0.02 0.01 0.01 0.01 0.01 0.01 0.00 0.00 0.00 0.00 0.00 0.00 0.00 0.00 0.01 0.02 0.02 0.03 0.06 0.11 0.20 0.25 0.27 0.28 0.30 0.31 0.33 0.33 0.34 0.33 0.29 0.24 0.18 0.17 0.19 0.20 0.16 0.14 0.12 0.11 0.09 0.10 0.12 0.15 0.19
0.21 0.24 0.14 0.07 0.04 0.02 0.01 0.02 0.01 0.01 0.01 0.00 0.00 0.00 0.00 0.00 0.01 0.01 0.02 0.03 0.04 0.05 0.08 0.13 0.19 0.24 0.27 0.30 0.32 0.31 0.33 0.34 0.35 0.36 0.33 0.25 0.19 0.17 0.17 0.14 0.13 0.13 0.13 0.12 0.09 0.09 0.09 0.09 0.10
0.30 0.31 0.15 0.06 0.04 0.03 0.02 0.03 0.02 0.02 0.01 0.01 0.01 0.00 0.00 0.01 0.02 0.03 0.05 0.08 0.09 0.10 0.13 0.16 0.22 0.26 0.27 0.27 0.29 0.33 0.34 0.34 0.33 0.34 0.31 0.27 0.21 0.15 0.13 0.09 0.08 0.11 0.12 0.11 0.11 0.11 0.09 0.07 0.05
0.38 0.33 0.13 0.05 0.04 0.04 0.04 0.04 0.04 0.04 0.03 0.01 0.01 0.01 0.01 0.02 0.03 0.04 0.05 0.09 0.11 0.11 0.13 0.18 0.23 0.26 0.29 0.27 0.30 0.34 0.32 0.31 0.28 0.26 0.26 0.24 0.21 0.16 0.11 0.09 0.09 0.11 0.11 0.11 0.13 0.13 0.08 0.07 0.06
0.28 0.22 0.11 0.06 0.05 0.07 0.08 0.07 0.06 0.07 0.05 0.02 0.02 0.02 0.03 0.04 0.05 0.05 0.05 0.06 0.10 0.11 0.12 0.15 0.22 0.28 0.31 0.29 0.29 0.31 0.30 0.30 0.28 0.26 0.28 0.31 0.30 0.24 0.20 0.18 0.17 0.14 0.12 0.16 0.18 0.19 0.16 0.18 0.19
0.21 0.14 0.10 0.08 0.07 0.09 0.11 0.11 0.10 0.09 0.06 0.03 0.03 0.03 0.04 0.06 0.07 0.06 0.06 0.06 0.11 0.15 0.15 0.15 0.22 0.30 0.33 0.31 0.31 0.28 0.27 0.27 0.27 0.26 0.27 0.31 0.31 0.29 0.25 0.23 0.20 0.18 0.17 0.19 0.23 0.25 0.23 0.21 0.20
0.21 0.14 0.11 0.10 0.11 0.11 0.11 0.11 0.11 0.10 0.06 0.04 0.04 0.04 0.05 0.05 0.06 0.08 0.08 0.09 0.12 0.16 0.17 0.17 0.21 0.29 0.34 0.35 0.35 0.32 0.27 0.24 0.22 0.22 0.22 0.21 0.23 0.24 0.21 0.16 0.13 0.13 0.14 0.15 0.16 0.17 0.20 0.20 0.19
0.22 0.18 0.14 0.12 0.13 0.13 0.12 0.12 0.11 0.08 0.06 0.07 0.07 0.06 0.05 0.04 0.05 0.08 0.10 0.10 0.12 0.16 0.18 0.19 0.21 0.28 0.35 0.35 0.36 0.34 0.31 0.25 0.23 0.21 0.20 0.17 0.16 0.16 0.13 0.08 0.05 0.04 0.04 0.05 0.05 0.05 0.06 0.09 0.13
0.22 0.24 0.21 0.15 0.14 0.15 0.16 0.15 0.09 0.05 0.07 0.10 0.09 0.08 0.06 0.04 0.05 0.06 0.09 0.10 0.11 0.15 0.20 0.21 0.24 0.29 0.34 0.37 0.37 0.36 0.34 0.32 0.28 0.23 0.21 0.18 0.16 0.14 0.12 0.07 0.04 0.02 0.02 0.02 0.02 0.02 0.02 0.03 0.07
0.34 0.37 0.31 0.17 0.14 0.17 0.26 0.19 0.06 0.05 0.08 0.10 0.10 0.08 0.07 0.05 0.05 0.05 0.07 0.10 0.12 0.16 0.22 0.24 0.25 0.30 0.34 0.38 0.41 0.37 0.36 0.33 0.31 0.27 0.25 0.22 0.18 0.15 0.13 0.11 0.06 0.03 0.02 0.02 0.03 0.03 0.04 0.06 0.07
0.50 0.46 0.27 0.16 0.15 0.21 0.28 0.19 0.07 0.08 0.09 0.10 0.11 0.09 0.07 0.05 0.05 0.05 0.06 0.08 0.11 0.15 0.22 0.26 0.24 0.27 0.33 0.38 0.44 0.44 0.39 0.37 0.34 0.31 0.29 0.26 0.24 0.19 0.15 0.13 0.09 0.06 0.05 0.05 0.05 0.05 0.07 0.09 0.11
0.48 0.34 0.22 0.15 0.15 0.21 0.23 0.18 0.10 0.10 0.11 0.10 0.10 0.09 0.08 0.06 0.05 0.05 0.07 0.08 0.10 0.13 0.21 0.27 0.26 0.27 0.33 0.42 0.47 0.50 0.46 0.41 0.37 0.34 0.32 0.31 0.29 0.26 0.21 0.16 0.13 0.09 0.07 0.07 0.07 0.08 0.10 0.11 0.13
0.37 0.29 0.23 0.15 0.14 0.21 0.19 0.14 0.11 0.10 0.11 0.09 0.09 0.08 0.08 0.06 0.05 0.06 0.10 0.11 0.14 0.16 0.21 0.26 0.27 0.29 0.34 0.39 0.45 0.44 0.45 0.41 0.38 0.33 0.34 0.33 0.33 0.32 0.29 0.24 0.18 0.13 0.11 0.09 0.07 0.07 0.07 0.07 0.08
0.40 0.38 0.24 0.17 0.17 0.22 0.19 0.12 0.08 0.07 0.09 0.08 0.07 0.08 0.07 0.07 0.07 0.07 0.09 0.14 0.15 0.17 0.20 0.23 0.26 0.25 0.27 0.30 0.35 0.37 0.37 0.37 0.38 0.34 0.31 0.34 0.33 0.33 0.33 0.29 0.22 0.15 0.11 0.07 0.04 0.04 0.05 0.04 0.03
0.37 0.35 0.25 0.20 0.19 0.22 0.21 0.15 0.07 0.04 0.04 0.04 0.05 0.06 0.06 0.07 0.08 0.07 0.08 0.13 0.17 0.18 0.20 0.22 0.27 0.23 0.25 0.29 0.35 0.40 0.43 0.44 0.43 0.40 0.32 0.30 0.31 0.30 0.28 0.26 0.24 0.19 0.13 0.09 0.06 0.04 0.06 0.07 0.05
0.35 0.24 0.22 0.23 0.32 0.36 0.26 0.27 0.07 0.04 0.04 0.04 0.05 0.06 0.06 0.07 0.08 0.07 0.07 0.11 0.16 0.18 0.22 0.23 0.29 0.31 0.27 0.32 0.34 0.34 0.36 0.39 0.36 0.34 0.31 0.29 0.30 0.29 0.26 0.23 0.22 0.20 0.17 0.13 0.10 0.07 0.07 0.10 0.11
0.27 0.22 0.26 0.27 0.36 0.41 0.27 0.29 0.10 0.04 0.06 0.06 0.06 0.06 0.07 0.07 0.08 0.07 0.06 0.09 0.14 0.18 0.22 0.26 0.29 0.34 0.34 0.34 0.34 0.30 0.29 0.31 0.34 0.35 0.32 0.28 0.30 0.30 0.26 0.21 0.18 0.18 0.17 0.14 0.13 0.12 0.11 0.12 0.15
0.27 0.36 0.47 0.50 0.63 0.71 0.27 0.23 0.13 0.06 0.07 0.05 0.04 0.06 0.08 0.08 0.08 0.08 0.06 0.08 0.12 0.16 0.20 0.23 0.28 0.32 0.38 0.38 0.37 0.30 0.27 0.27 0.34 0.37 0.37 0.30 0.30 0.32 0.29 0.22 0.16 0.15 0.16 0.15 0.14 0.13 0.14 0.14 0.15
0.49 0.75 1.15 1.24 1.21 0.70 0.13 0.14 0.13 0.08 0.05 0.04 0.03 0.05 0.07 0.08 0.09 0.08 0.07 0.09 0.11 0.15 0.19 0.22 0.26 0.30 0.37 0.40 0.40 0.34 0.26 0.24 0.27 0.31 0.34 0.31 0.30 0.31 0.32 0.28 0.22 0.17 0.16 0.16 0.16 0.17 0.17 0.16 0.18
0.55 0.67 0.90 0.91 0.64 0.24 0.07 0.10 0.09 0.05 0.03 0.02 0.02 0.03 0.04 0.06 0.09 0.09 0.08 0.10 0.10 0.12 0.18 0.23 0.26 0.29 0.34 0.36 0.39 0.37 0.30 0.25 0.23 0.24 0.27 0.29 0.26 0.26 0.28 0.30 0.28 0.23 0.19 0.19 0.19 0.20 0.20 0.21 0.23
0.49 0.50 0.42 0.54 0.40 0.23 0.13 0.08 0.07 0.05 0.02 0.02 0.02 0.04 0.05 0.05 0.08 0.10 0.09 0.10 0.10 0.12 0.15 0.21 0.26 0.30 0.35 0.34 0.35 0.38 0.34 0.28 0.23 0.22 0.21 0.24 0.24 0.22 0.23 0.28 0.30 0.28 0.26 0.24 0.23 0.22 0.22 0.25 0.27
0.43 0.49 0.56 0.79 0.66 0.35 0.15 0.09 0.09 0.07 0.05 0.03 0.03 0.05 0.05 0.06 0.07 0.09 0.09 0.10 0.11 0.12 0.13 0.16 0.25 0.29 0.34 0.34 0.35 0.37 0.38 0.33 0.27 0.25 0.23 0.20 0.21 0.23 0.23 0.24 0.28 0.32 0.33 0.31 0.30 0.29 0.26 0.28 0.29
0.42 0.58 0.79 0.83 0.58 0.41 0.23 0.13 0.10 0.08 0.06 0.04 0.04 0.04 0.05 0.04 0.07 0.08 0.07 0.08 0.11 0.13 0.13 0.15 0.21 0.30 0.36 0.36 0.35 0.39 0.41 0.37 0.33 0.31 0.27 0.24 0.21 0.22 0.25 0.26 0.27 0.31 0.35 0.37 0.39 0.37 0.36 0.35 0.33
0.35 0.47 0.61 0.78 0.59 0.30 0.23 0.15 0.09 0.05 0.05 0.04 0.04 0.04 0.05 0.05 0.07 0.06 0.05 0.06 0.10 0.11 0.14 0.15 0.19 0.27 0.34 0.38 0.36 0.38 0.42 0.40 0.37 0.37 0.34 0.31 0.29 0.27 0.28 0.32 0.33 0.35 0.38 0.41 0.45 0.46 0.47 0.50 0.48